Location: Augirein
(42.9320°N, 0.9181°E)
Time: 18:16:06
(UTC+00:00)

Cosmos 1782 - Pass Details

Date: 20 June 2021
Orbit: 537 x 550 km, 82.5° (Epoch: 30 July)

Event Time Altitude Azimuth Distance (km) Brightness Sun altitude
Rises 02:10:48 0° 357° (N) 2,718 7.3 -16.9°
Reaches altitude 10° 02:13:01 10° 3° (N) 1,823 6.4 -16.7°
Maximum altitude 02:16:55 49° 79° (ENE) 712 3.6 -16.3°
Enters shadow 02:20:39 11° 154° (SSE) 1,758 5.1 -15.9°
